Flag for United Arab Emirates Weather past 2 weeks in Abu Dhabi, Abu Dhabi, United Arab Emirates

Now
99 °F

Clear.


Feels Like: 112 °F
Forecast: 94 / 102 °F
Wind: 12 mph from Northwest

Location: Abu Dhabi Bateen Airport

Current Time: Sep 2, 2015 at 7:21:47 PM

Latest Report: Sep 2, 2015 at 7:00 PM


Visibility: 4 mi

Pressure: 29.53 "Hg

Humidity: 47%

Dew point: 75 °F

Historic Weather in Abu Dhabi — Graph

°F

Abu Dhabi temperature yesterday

Maximum temperature yesterday: 111 °F (at 1:00 PM)
Minimum temperature yesterday: 88 °F (at 6:00 AM)
Average temperature yesterday: 98 °F

Past Weeks' High & Low Weather Summary

 TemperatureHumidityPressure
High115 °F (Aug 24, 3:00 PM)94% (Aug 29, 6:00 AM)29.68 "Hg (Aug 29, 6:00 AM)
Low88 °F (Aug 27, 5:00 AM)11% (Aug 25, 3:00 PM)29.50 "Hg (Aug 22, 2:00 AM)
Average99 °F46%29.56 "Hg
* Reported Aug 18 6:00 PM — Sep 2 6:00 PM, Abu Dhabi, Weather by CustomWeather, © 2015

Note: Actual official high and low records may vary slightly from our data, if they occured in-between our weather recording intervals... More about our weather records

Advertising

Abu Dhabi weather history for previous 24 hours

 ConditionsComfort  
Time TempWeatherWind HumidityBarometerVisibility
6:00 PM
Wed, Sep 2
99 °FDuststorm.13 mph50%29.53 "Hg3 mi
5:00 PM100 °FDuststorm.15 mph47%29.50 "Hg3 mi
4:00 PM102 °FDuststorm.13 mph48%29.50 "Hg3 mi
3:00 PM100 °FClear.13 mph57%29.53 "Hg4 mi
2:00 PM100 °FClear.12 mph57%29.53 "Hg5 mi
1:00 PM102 °FClear.10 mph54%29.56 "Hg5 mi
12:00 PM100 °FClear.8 mph53%29.59 "Hg5 mi
11:00 AM100 °FClear.6 mph53%29.59 "Hg5 mi
10:00 AM99 °FClear.8 mph53%29.59 "Hg5 mi
9:00 AM95 °FClear.3 mph75%29.59 "Hg4 mi
8:00 AM93 °FClear.2 mph80%29.56 "Hg4 mi
7:00 AM91 °FPassing clouds.6 mph84%29.56 "Hg4 mi
6:00 AM90 °FPassing clouds.3 mph89%29.56 "Hg4 mi
5:00 AM90 °FClear.5 mph89%29.53 "Hg4 mi
4:00 AM90 °FClear.3 mph89%29.53 "Hg4 mi
3:00 AM91 °FClear.3 mph84%29.53 "Hg4 mi
2:00 AM91 °FClear.5 mph84%29.56 "Hg4 mi
1:00 AM91 °FClear.6 mph84%29.56 "Hg4 mi
12:00 AM93 °FClear.5 mph80%29.59 "Hg4 mi
11:00 PM
Tue, Sep 1
93 °FClear.3 mph75%29.59 "Hg4 mi
10:00 PM93 °FClear.8 mph80%29.59 "Hg4 mi
9:00 PM93 °FClear.9 mph80%29.59 "Hg4 mi
8:00 PM95 °FClear.8 mph75%29.56 "Hg5 mi
7:00 PM95 °FPassing clouds.10 mph71%29.56 "HgN/A
Weather by CustomWeather, © 2015

See weather overviewHow to use our weather pages